Miscellaneous Local Product
Issued by NWS Hastings, NE

Home | Current Version | Previous Version | Text Only | Print | Product List | Glossary On
Versions: 1 2 3 4 5 6 7 8 9 10 11 12 13 14 15 16 17 18 19 20 21 22 23 24 25 26 27 28 29 30 31 32 33 34 35 36 37 38 39 40 41 42 43 44 45 46 47 48 49 50
931
AXUS43 KGID 240202
MISGRI

GID CWA HOURLY WEATHER ROUNDUP
NATIONAL WEATHER SERVICE HASTINGS NE
800 PM CST MON JAN 23 2017

NOTE: "FAIR" INDICATES FEW OR NO CLOUDS BELOW 12,000 FEET WITH NO
SIGNIFICANT WEATHER AND/OR OBSTRUCTIONS TO VISIBILITY.

...SOUTH CENTRAL NEBRASKA...

CITY           SKY/WX    TMP DP  RH WIND       PRES   REMARKS
GRAND ISLAND   CLOUDY    32  32 100 SE14      29.71F FOG     WCI  22
HASTINGS       CLOUDY    34  32  92 SE15      29.71R WCI  24
KEARNEY        CLOUDY    34  30  86 E12       29.68S WCI  25
ORD            CLOUDY    32  30  92 E9        29.71R FOG     WCI  24
YORK           PTCLDY    32  32 100 SE14      29.75R WCI  22
AURORA         CLOUDY    32  32 100 SE15      29.72S FOG     WCI  22
LEXINGTON      CLEAR     35  32  91 SE10      29.63S WCI  27
HOLDREGE       CLEAR     33  31  92 E9        29.65S WCI  25
HEBRON         FOG       33  33 100 E10       29.74S VSB 1   WCI  24

...NEBRASKA PANHANDLE...

CITY           SKY/WX    TMP DP  RH WIND       PRES   REMARKS
CHADRON        CLOUDY    26  24  92 NE13      29.68R FOG     WCI  15
ALLIANCE       CLOUDY    31  25  78 E3        29.58R
SCOTTSBLUFF    CLOUDY    37  28  70 N8        29.57S WCI  31
SIDNEY         CLOUDY    32  26  78 E3        29.57S

...WESTERN AND NORTH CENTRAL NEBRASKA...

CITY           SKY/WX    TMP DP  RH WIND       PRES   REMARKS
VALENTINE      MOCLDY    32  27  81 E9        29.66R WCI  24
AINSWORTH      CLEAR     29  28  99 E9        29.66S WCI  20
ONEILL         CLOUDY    33  32  94 SE9G17    29.74R WCI  26
BROKEN BOW     FOG       33  32  96 E13       29.66R VSB 3/4 WCI  24
IMPERIAL       CLEAR     35  27  72 E9        29.56F WCI  28
NORTH PLATTE   MOCLDY    35  29  78 E7        29.60S WCI  29
MCCOOK         MOCLDY    38  31  76 E12       29.57F WCI  30

...EASTERN NEBRASKA...

CITY           SKY/WX    TMP DP  RH WIND       PRES   REMARKS
NORFOLK        CLOUDY    31  28  89 SE8       29.79R WCI  23
SO SIOUX CITY  CLOUDY    34  30  85 SE8       29.83R WCI  27
TEKAMAH        CLOUDY    32  28  85 SE8       29.83S WCI  25
COLUMBUS       MOCLDY    32  28  86 E9        29.79R WCI  24
ALBION         CLOUDY    34  31  88 E10G16    29.76R WCI  26
OMAHA EPPLEY   CLOUDY    33  27  78 SE9       29.84R WCI  25
OFFUTT AFB     CLOUDY    33  32  99 E9        29.83S WCI  25
MILLARD        CLOUDY    34  31  87 E6        29.83S WCI  29
LINCOLN        CLOUDY    33  30  88 E12       29.81S WCI  24
NEBRASKA CITY  PTCLDY    32  30  94 E5        29.83S WCI  27
BEATRICE       CLOUDY    33  32  95 E7        29.78S FOG     WCI  27
FALLS CITY     CLEAR     31  28  89 E7        29.82S WCI  24

...NORTHERN KANSAS...

CITY           SKY/WX    TMP DP  RH WIND       PRES   REMARKS
GOODLAND       CLEAR     36  29  75 E9        29.52F WCI  29
HILL CITY      CLEAR     39  33  79 E8        29.59S WCI  33
NORTON         CLEAR     37  28  70 E8        29.60R WCI  31
PHILLIPSBURG   CLEAR     39  30  70 E9        29.63S WCI  33
SMITH CENTER   CLEAR     37  30  75 E15       29.66F WCI  28
HAYS           CLEAR     37  32  82 E9        29.62S WCI  30
RUSSELL        CLEAR     40  33  76 SE15      29.62F WCI  32
CONCORDIA      CLEAR     37  34  89 E9        29.72R WCI  30
SALINA         CLEAR     46  32  58 E7        29.72S
TOPEKA         CLEAR     34  30  85 E7        29.82R WCI  28



USA.gov is the U.S. government's official web portal to all federal, state and local government web resources and services.